Location: Silverdale
(47.6506°N, 122.6941°W)
Time: 01:57:50
(UTC+00:00)

ISS - Visible Passes

Search period start: 19 August 2022 00:00
Search period end: 29 August 2022 00:00
Orbit: 412 x 420 km, 51.6° (Epoch: 18 August)

Date Brightness Start Highest point End Pass type
(mag) Time Alt. Az. Time Alt. Az. Time Alt. Az.
25 Aug -1.9 11:59:53 13° S 12:02:03 23° SE 12:04:45 10° E visible
26 Aug -1.4 11:13:17 15° SE 11:13:35 15° SE 11:15:32 10° E visible
26 Aug -3.7 12:46:30 10° WSW 12:49:51 76° SSE 12:53:12 10° ENE visible
27 Aug -3.3 11:59:31 24° SSW 12:01:13 50° SSE 12:04:30 10° ENE visible
28 Aug -2.6 11:12:48 32° SE 11:12:48 32° SE 11:15:41 10° E visible
28 Aug -3.4 12:45:54 10° W 12:49:14 61° NNW 12:52:34 10° ENE visible
